Simultaneous Nadir Overpasses (SNOs) Predictions

Prediction of SNOs between METOP-B and TERRA Satellite Orbit:

Table of predicted SNOs for the next 14.0 days since TLE Epoch: 3/6/2021
Index Date (METOP-B) Time (METOP-B) Lat,Lon (METOP-B) SZA (METOP-B ) Date (TERRA) Time (TERRA) Lat,Lon (TERRA) SZA (TERRA ) Distance(km) Time Diff (sec)
1 03/07/2021 12:00:20 -81.30,-133.66 91.27 03/07/2021 12:01:04 -81.30,-133.68 91.25 0.24 44
2 03/07/2021 12:50:59 81.31, 34.19 88.78 03/07/2021 12:50:30 81.31, 34.06 88.76 2.16 29
3 03/10/2021 07:34:40 -81.30, -67.17 92.34 03/10/2021 07:35:16 -81.31, -67.08 92.30 1.88 36
4 03/10/2021 08:25:19 81.31, 100.68 87.72 03/10/2021 08:24:42 81.32, 100.64 87.70 0.79 37
5 03/13/2021 03:09:01 -81.31, -0.70 93.41 03/13/2021 03:09:30 -81.30, -0.89 93.42 3.27 29
6 03/13/2021 03:59:41 81.31, 166.76 86.60 03/13/2021 03:58:56 81.30, 166.80 86.58 0.95 45
7 03/15/2021 22:43:22 -81.31, 65.76 94.49 03/15/2021 22:43:43 -81.30, 65.64 94.49 2.10 21
8 03/15/2021 23:34:02 81.31,-126.77 85.52 03/15/2021 23:33:09 81.30,-126.70 85.50 1.29 53
9 03/18/2021 18:17:43 -81.31, 132.21 95.57 03/18/2021 18:17:56 -81.31, 132.13 95.57 1.40 13



Historial Predications of SNOs between METOP-B and TERRA
